Location: Rumah Dana
(3.1167°N, 113.0167°E)
Time: 04:57:54
(UTC+00:00)

OAO 2 Rocket - Pass Details

Date: 20 January 2026
Orbit: 668 x 734 km, 35.0° (Epoch: 11 February)

Event Time Altitude Azimuth Distance (km) Brightness Sun altitude
Rises 11:00:33 0° 312° (NW) 2,991 7.0 -6.1°
Reaches altitude 10° 11:02:57 10° 314° (NW) 2,076 6.1 -6.7°
Maximum altitude 11:07:45 67° 37° (NE) 719 3.2 -7.8°
Drops below altitude 10° 11:12:35 10° 119° (ESE) 2,087 5.4 -9.0°
Sets 11:14:59 0° 122° (ESE) 3,007 6.2 -9.5°
